Погода в Дуляпино

Россия / Ивановская область     57°15′10″N   40°49′21″E
темп.,
°C
ветер,
м/с
пор.,
м/с
влажн.,
%
обл.,
%
осадки,
мм/ч
давл.,
гПа
погр.,
м
19 апреля, пн
пн1900:00+5в5118596 0.0 1027609
03:00+4всв4982100 0.0 1027572
06:00+2всв51177100 0.0 1028465
09:00+4в6961100 0.0 1028678
12:00+7в794993 0.0 10281196
15:00+9в784394 0.0 10271705
18:00+7в694598 0.0 10281454
21:00+3в5125595 0.0 1028609
20 апреля, вт
вт2000:00+2в51362100 0.0 1029574
03:000в513665 0.0 1028461
06:000в5136582 0.0 1027503
09:00+4вюв7115199 0.0 1027761
12:00+8вюв71147100 0.0 10251352
15:00+10вюв71245100 0.0 10231486
18:00+9вюв7134875 0.0 10211455
21:00+6в71350100 0.0 1020949
21 апреля, ср
ср2100:00+4в71551100 0.0 1017861
03:00+1в81786100 0.9 1013860
06:000в91997100 5.0 1009919
09:00+1вюв81997100 7.5 1005864
12:00+4вюв91893100 1.4 10021181
15:00+3ююв81597100 2.8 10021108
18:00+2ююз81497100 0.8 1006994
21:00+3ююз61293100 0.9 10091073
22 апреля, чт
чт2200:00+3ююз61291100 0.1 1011777
03:00+3ю51289100 0.1 1012468
06:00+3ю4109247 0.0 1013728
09:00+7ююз6128199 0.0 10131111
12:00+8ююз61177100 0.3 10141276
15:00+7ююз5985100 0.4 1015663
18:00+8юз4983100 0.0 1016649
21:00+5ююз249465 0.0 101867
23 апреля, пт
пт2300:00+5ю34955 0.0 101872
03:00+4ю34955 0.0 101860
06:00+4ююв369725 0.0 1018136
09:00+11ю487612 0.0 1018440
12:00+15ю585834 0.0 10171286
15:00+16ю584822 0.1 10162212
18:00+14ю4106593 0.0 1016523
21:00+11ююв31077100 0.0 1015233